Temp
80 74 69 75 78 78 76 73 71 76 79 75 75 75 79 83 84 81 81 79 77 77 81 79 78 79 78 76 75 76 75 74 74 76 74 70 72 67 64 67 66 66 72 72
74 69 79 82 80 76 74 71 71 75 78 74 74 74 79 82 83 83 82 79 78 78 78 77 77 77 77 76 75 76 76 74 75 77 72 73 71 70 72 63 67 69 71 71
71 76 82 79 76 72 72 70 70 69 75 76 73 70 76 81 83 83 82 83 81 78 76 76 76 76 77 76 75 76 75 75 75 75 72 72 71 72 68 63 64 68 70 72
76 83 79 75 73 75 68 76 74 71 68 63 72 59 72 77 79 83 84 81 80 79 78 77 76 76 77 77 78 76 76 75 76 76 75 70 69 70 70 67 64 63 70 68
73 77 74 72 74 78 72 79 74 72 68 67 68 62 70 77 74 79 84 85 80 79 78 77 77 77 79 78 78 78 76 75 76 75 74 76 69 67 69 72 68 65 65 66
78 85 80 78 80 80 80 73 72 71 69 57 67 65 67 74 75 79 83 81 79 79 79 79 79 79 79 79 79 77 76 75 76 76 75 73 71 68 68 69 68 64 66 63
73 76 81 81 75 77 76 68 58 55 56 55 67 63 68 77 80 81 81 82 79 79 79 78 77 78 77 77 77 78 76 75 76 76 75 74 73 71 63 62 69 63 63 65
65 62 74 79 76 71 71 70 61 49 53 59 66 59 71 80 80 81 80 79 79 78 79 78 78 78 79 78 77 78 77 76 76 77 75 75 75 77 68 65 66 63 64 67
66 67 80 79 81 79 71 66 75 64 66 59 65 68 76 79 79 80 78 75 75 77 77 78 79 79 79 78 77 77 77 77 77 77 76 75 76 74 67 68 69 66 65 68
73 63 74 77 80 80 76 77 62 65 51 49 61 62 66 73 76 78 76 75 75 76 78 79 79 78 79 79 78 78 78 78 77 77 77 77 76 76 72 75 67 66 65 64
77 70 68 74 70 70 71 69 69 70 67 56 53 62 76 75 78 78 79 79 76 77 79 79 80 80 80 80 80 77 78 78 77 77 77 76 76 77 76 74 75 73 73 73
76 69 61 66 77 80 77 71 70 61 58 64 63 64 80 80 81 81 81 80 80 80 81 81 81 80 80 79 80 78 78 79 79 79 78 76 76 77 76 76 76 77 74 73
74 66 58 63 67 73 70 73 73 71 68 61 60 63 81 80 79 81 80 81 79 79 81 81 81 80 80 80 80 80 79 79 80 80 78 76 75 76 75 75 76 78 73 77
72 68 63 59 63 69 64 69 73 70 62 63 65 68 75 77 78 81 80 81 80 79 79 81 80 81 81 81 81 81 80 81 80 80 78 75 74 75 75 77 77 78 79 78
72 62 67 70 73 72 70 69 70 67 69 63 68 70 75 79 80 82 83 81 79 78 79 80 79 80 81 80 81 81 81 81 80 79 78 75 75 76 77 76 77 77 78 79
71 62 67 65 72 72 68 71 71 70 71 70 71 70 82 84 86 84 83 80 79 79 81 81 81 81 80 80 80 81 81 81 80 79 78 78 77 77 75 76 76 76 77 78
65 64 62 57 68 68 61 68 71 71 74 73 67 75 82 81 81 83 82 81 81 81 82 82 81 81 80 81 80 80 81 81 80 79 80 78 77 76 75 76 76 76 75 75
64 63 65 61 63 49 67 78 77 73 74 77 77 79 82 83 85 87 89 85 84 84 83 84 83 82 81 83 82 82 83 81 80 80 80 79 78 77 77 76 75 73 74 74
68 66 61 56 57 63 68 72 73 70 70 79 77 80 83 86 86 84 88 89 86 86 86 86 86 84 82 82 83 82 82 81 81 81 81 80 80 78 76 75 74 74 73 73
63 67 63 58 51 49 68 76 80 80 65 81 80 80 81 84 74 81 88 89 88 89 88 86 86 85 82 82 82 81 81 81 81 83 83 82 82 78 76 75 73 74 74 74
56 58 56 56 54 63 74 80 80 61 67 81 82 81 81 80 82 88 91 88 89 87 86 88 86 83 81 82 82 80 81 80 84 86 85 83 81 78 77 75 74 73 73 76
56 54 55 59 55 52 77 76 67 75 79 82 83 84 82 84 85 87 86 87 87 86 85 86 84 83 82 82 81 80 79 83 85 86 85 83 80 80 78 74 73 73 73 72
55 63 60 62 62 72 78 77 79 83 81 82 84 84 84 84 84 86 85 86 87 87 86 87 85 83 81 82 83 80 82 84 85 84 82 81 80 79 78 74 73 75 72 76
62 68 62 63 69 72 76 79 82 83 83 85 85 86 85 83 85 85 84 85 87 87 86 86 85 83 80 81 82 84 85 86 85 82 81 81 78 77 78 79 78 78 76 77
64 66 61 62 68 73 75 78 82 82 83 82 85 86 85 85 85 86 85 84 87 87 87 86 85 84 82 82 82 85 86 86 83 81 81 80 80 76 77 78 80 80 79 77
63 62 61 60 70 71 73 79 82 82 81 81 84 84 85 86 86 86 86 87 87 87 88 85 85 85 85 84 83 84 87 86 83 80 81 81 82 79 81 79 79 56 54 54
MSLP
1004.75 1004.12 1003.21 1003.36 1003.92 1003.98 1003.93 1004.15 1004.07 1004.15 1004.82 1005.08 1004.43 1004.13 1003.94 1003.81 1003.84 1004.30 1004.70 1005.64 1006.66 1007.65 1008.75 1009.93 1010.58 1011.09 1011.46 1011.83 1012.06 1012.05 1012.09 1012.21 1012.16 1011.39 1011.26 1011.34 1011.04 1011.51 1011.61 1011.43 1011.16 1010.99 1010.37 1010.33
1003.81 1002.44 1002.55 1003.25 1003.53 1004.04 1004.33 1004.26 1003.96 1004.27 1004.68 1005.06 1004.29 1003.64 1003.34 1003.01 1002.94 1003.24 1003.80 1004.77 1005.91 1007.16 1008.38 1009.52 1010.25 1010.85 1011.21 1011.58 1011.82 1011.86 1011.88 1012.02 1011.97 1011.41 1011.68 1011.57 1011.43 1011.55 1011.37 1011.36 1010.90 1010.31 1010.27 1010.39
1001.33 1001.31 1002.38 1002.69 1003.03 1003.69 1003.74 1003.90 1003.81 1004.22 1004.44 1004.74 1004.20 1003.28 1002.21 1002.33 1002.43 1002.77 1003.48 1003.99 1005.05 1006.35 1007.74 1008.87 1009.75 1010.38 1010.81 1011.27 1011.56 1011.65 1011.80 1011.84 1011.92 1011.63 1011.66 1011.50 1011.58 1011.40 1011.38 1011.38 1011.16 1010.73 1010.45 1010.47
1000.90 1000.85 1001.30 1002.18 1002.40 1003.09 1002.84 1003.64 1004.11 1004.21 1004.45 1003.77 1004.13 1002.66 1002.00 1001.85 1001.51 1001.59 1002.13 1003.33 1004.31 1005.74 1007.18 1008.21 1009.16 1009.96 1010.47 1010.89 1011.36 1011.52 1011.69 1011.75 1011.74 1011.68 1011.45 1011.53 1011.24 1010.85 1011.24 1011.44 1011.48 1011.13 1010.71 1010.65
999.60 999.82 1000.76 1001.26 1001.44 1002.37 1002.52 1003.02 1003.86 1004.11 1004.13 1004.07 1003.53 1002.90 1001.36 1001.30 1001.12 1000.97 1001.21 1002.04 1003.82 1005.22 1006.62 1007.65 1008.67 1009.46 1010.09 1010.76 1011.12 1011.35 1011.52 1011.66 1011.81 1011.81 1011.67 1011.09 1011.24 1011.39 1011.44 1011.21 1011.37 1011.48 1011.28 1011.06
999.49 999.72 1000.30 1000.69 1001.29 1001.88 1002.86 1003.49 1004.05 1004.27 1004.09 1003.46 1002.70 1002.23 1000.90 1000.49 1000.69 1000.76 1001.09 1002.29 1003.52 1004.90 1006.27 1007.43 1008.47 1009.22 1009.82 1010.47 1010.95 1011.23 1011.31 1011.61 1011.70 1011.69 1011.70 1011.73 1011.53 1011.59 1011.68 1011.49 1011.43 1011.61 1011.59 1011.47
999.20 998.76 999.87 1000.47 1000.82 1001.92 1002.31 1002.91 1002.88 1003.03 1002.78 1002.37 1002.45 1002.24 1000.94 1000.56 1000.65 1000.93 1001.33 1001.93 1003.37 1004.69 1005.91 1007.06 1008.10 1008.88 1009.54 1010.11 1010.74 1011.01 1011.14 1011.38 1011.63 1011.60 1011.69 1011.78 1011.67 1011.68 1012.03 1012.21 1012.00 1011.99 1011.98 1011.84
997.53 997.99 998.71 999.60 999.81 1000.68 1001.33 1001.74 1001.44 1001.39 1001.69 1001.57 1002.41 1001.55 1000.26 1000.49 1001.01 1001.27 1001.85 1002.44 1003.32 1004.51 1005.64 1006.64 1007.70 1008.57 1009.19 1009.81 1010.48 1010.79 1010.99 1011.21 1011.45 1011.52 1011.80 1011.83 1011.78 1011.33 1012.11 1012.51 1012.39 1012.53 1012.56 1012.52
996.17 996.66 997.67 998.87 999.64 999.90 1000.32 1000.81 1001.42 1001.47 1001.48 1001.83 1001.17 1000.76 1000.70 1000.45 1000.49 1000.92 1001.76 1002.78 1003.60 1004.49 1005.48 1006.43 1007.44 1008.27 1008.86 1009.53 1010.22 1010.63 1010.85 1011.11 1011.36 1011.54 1011.84 1011.90 1011.98 1011.98 1012.42 1012.49 1012.43 1012.68 1012.77 1012.85
995.84 996.73 997.62 998.67 999.49 999.38 999.31 1000.79 1001.25 1001.42 1000.95 1000.70 1000.41 1000.38 999.84 999.79 999.94 1000.49 1001.47 1002.58 1003.60 1004.39 1005.22 1006.12 1007.03 1007.98 1008.63 1009.31 1009.97 1010.50 1010.76 1010.92 1011.24 1011.49 1011.72 1011.85 1011.96 1012.11 1012.44 1012.32 1012.80 1012.93 1013.12 1013.08
995.92 996.62 997.39 998.26 998.11 998.16 999.17 999.59 1000.15 1000.29 1000.33 1000.02 999.95 999.52 999.53 999.66 999.81 1000.09 1000.76 1001.91 1003.23 1004.01 1004.79 1005.64 1006.55 1007.65 1008.31 1009.00 1009.58 1010.25 1010.50 1010.79 1011.10 1011.38 1011.69 1011.91 1012.02 1012.13 1012.41 1012.62 1012.64 1012.88 1013.04 1013.14
995.18 996.65 996.78 996.94 997.64 997.97 998.27 998.85 999.57 999.77 1000.13 1000.39 999.87 999.03 999.39 999.68 999.68 1000.14 1000.51 1001.53 1002.59 1003.39 1004.43 1005.33 1006.03 1007.12 1007.81 1008.55 1009.17 1009.89 1010.20 1010.40 1010.77 1011.15 1011.55 1011.90 1012.19 1012.22 1012.41 1012.58 1012.73 1012.84 1013.09 1013.33
995.46 995.88 996.55 996.79 997.91 997.88 997.44 998.13 998.71 999.44 999.83 999.19 998.91 998.70 998.93 999.40 999.70 999.97 1000.33 1001.09 1002.20 1002.99 1003.86 1004.88 1005.61 1006.46 1007.27 1008.02 1008.65 1009.27 1009.84 1010.08 1010.45 1010.84 1011.38 1011.89 1012.31 1012.44 1012.53 1012.82 1012.90 1012.84 1013.21 1013.19
995.14 995.39 995.12 994.38 995.37 997.05 997.48 997.50 997.90 998.41 998.61 998.72 998.44 998.22 998.29 998.73 998.97 999.36 1000.12 1000.85 1001.74 1002.52 1003.37 1004.19 1005.07 1005.76 1006.66 1007.43 1008.13 1008.82 1009.39 1009.78 1010.32 1010.63 1011.14 1011.74 1012.23 1012.61 1012.69 1012.82 1012.92 1012.95 1013.03 1013.26
994.90 994.80 995.21 995.34 995.49 995.88 996.32 996.74 997.13 997.50 997.81 997.73 997.63 997.45 997.53 997.63 998.05 998.54 999.34 1000.53 1001.33 1002.20 1002.90 1003.63 1004.35 1005.04 1005.92 1006.76 1007.61 1008.40 1009.03 1009.54 1010.07 1010.41 1010.90 1011.61 1012.09 1012.57 1012.81 1012.94 1013.08 1013.16 1013.29 1013.38
994.88 994.47 995.08 994.94 995.29 995.25 995.57 995.94 996.24 996.70 996.90 997.05 997.18 996.89 996.88 997.30 997.41 997.94 998.87 999.91 1000.49 1001.26 1001.88 1002.79 1003.77 1004.50 1005.33 1006.18 1006.99 1007.86 1008.58 1009.27 1009.86 1010.16 1010.55 1011.26 1011.83 1012.25 1012.77 1013.08 1013.30 1013.47 1013.59 1013.64
994.79 994.73 994.83 994.47 995.03 995.25 994.79 994.24 994.89 995.58 995.89 996.14 995.89 996.24 996.46 996.51 997.12 997.35 998.23 999.13 999.63 1000.20 1000.92 1001.75 1002.70 1003.64 1004.67 1005.60 1006.55 1007.31 1008.08 1008.90 1009.58 1009.92 1010.27 1010.95 1011.57 1012.00 1012.59 1013.02 1013.25 1013.50 1013.78 1014.00
994.46 994.54 994.62 994.19 994.92 994.50 992.68 993.59 994.16 994.46 994.88 995.23 995.59 995.71 995.70 995.84 996.38 996.78 997.12 998.32 998.80 999.41 1000.16 1000.94 1002.05 1003.20 1004.13 1005.04 1006.12 1006.97 1007.65 1008.31 1008.97 1009.48 1009.88 1010.53 1011.16 1011.68 1012.22 1012.74 1013.19 1013.75 1014.08 1014.18
994.75 994.28 994.06 993.77 993.78 993.49 993.04 993.08 992.88 993.44 993.80 994.34 994.80 995.05 995.10 995.34 995.85 996.06 996.57 997.20 998.17 998.64 999.25 1000.09 1001.01 1002.29 1003.61 1004.57 1005.50 1006.36 1007.09 1007.77 1008.19 1008.67 1009.30 1009.98 1010.62 1011.26 1011.92 1012.43 1013.07 1013.67 1014.07 1014.33
995.59 994.61 994.00 994.10 993.68 992.58 992.27 992.62 993.17 993.33 992.91 993.44 994.04 994.30 994.62 994.92 995.22 994.93 995.55 996.71 997.66 998.08 998.81 999.68 1000.54 1001.76 1002.92 1004.07 1005.00 1005.75 1006.33 1007.02 1007.36 1007.85 1008.61 1009.37 1010.08 1010.83 1011.57 1012.20 1012.92 1013.57 1013.96 1014.20
995.24 994.76 993.84 993.66 993.48 992.70 992.30 991.93 993.03 992.79 992.54 992.74 993.20 993.57 994.08 994.22 994.47 994.52 994.88 995.94 997.01 997.85 998.61 999.41 1000.13 1000.81 1001.79 1003.04 1004.19 1004.99 1005.55 1006.12 1006.76 1007.29 1008.03 1008.88 1009.84 1010.62 1011.31 1012.07 1012.82 1013.35 1013.65 1013.68
993.93 993.84 993.57 993.45 993.18 992.72 992.67 992.70 992.60 992.55 992.66 992.82 992.96 993.08 993.56 993.84 994.37 994.94 995.57 996.03 996.61 997.44 998.34 999.06 999.93 1000.44 1001.48 1002.56 1003.39 1004.17 1004.70 1005.49 1006.23 1006.85 1007.55 1008.39 1009.48 1010.29 1011.05 1011.81 1012.44 1012.98 1013.33 1013.73
993.70 993.17 993.00 993.16 993.11 992.97 992.90 992.65 992.97 992.54 992.60 992.75 992.81 992.98 993.23 993.57 994.39 994.75 995.45 995.90 996.50 997.12 998.04 998.71 999.39 1000.28 1001.29 1001.99 1002.54 1003.02 1003.63 1004.88 1005.66 1006.32 1007.10 1007.97 1009.05 1009.90 1010.60 1011.40 1011.97 1012.43 1012.95 1013.01
994.66 994.05 993.74 993.68 993.26 993.24 993.05 993.24 992.76 992.89 992.68 992.67 992.94 992.93 993.18 993.59 994.15 994.63 995.40 995.79 996.16 996.74 997.55 998.32 998.95 999.67 1000.54 1001.24 1001.58 1001.74 1003.22 1004.10 1004.91 1005.82 1006.77 1007.63 1008.45 1009.32 1010.03 1010.75 1011.30 1011.54 1012.05 1012.24
994.88 994.64 994.52 994.19 994.23 993.72 993.53 993.44 992.79 992.97 993.06 993.39 993.34 993.01 993.17 993.53 993.95 994.45 994.93 995.44 995.93 996.27 996.98 997.80 998.31 998.76 999.61 1000.58 1001.20 1001.81 1002.34 1003.30 1004.18 1005.16 1006.09 1006.96 1007.75 1008.69 1009.28 1009.82 1010.11 1010.66 1011.20 1011.63
995.18 994.29 993.88 993.55 994.33 993.99 993.64 993.57 992.96 992.80 993.00 993.43 993.17 993.09 993.28 993.41 993.74 994.33 994.56 994.97 995.47 995.89 996.56 997.45 997.87 998.25 998.87 999.76 1000.57 1001.21 1001.63 1002.35 1003.26 1004.39 1005.23 1005.96 1006.52 1007.69 1008.19 1009.00 1009.64 1010.43 1010.97 1011.59
Wind_Speed
21 18 23 25 21 17 10 11 13 9 6 9 14 13 14 16 14 12 13 14 16 15 12 11 10 7 4 2 3 5 6 6 7 6 6 4 5 5 4 5 6 7 6 2
18 23 24 22 19 16 14 16 16 8 9 7 13 15 16 16 12 10 12 14 15 14 14 13 11 9 6 1 1 4 4 5 6 5 4 3 4 2 4 3 5 3 4 4
23 22 23 21 17 19 18 18 13 11 10 12 12 17 7 8 7 9 10 11 13 16 16 15 13 10 7 4 2 1 4 5 5 6 5 3 3 1 3 4 4 7 4 1
23 22 24 18 24 20 20 15 14 13 12 11 2 13 11 9 9 9 8 10 12 15 16 15 14 11 8 6 5 2 3 4 5 7 6 6 5 4 3 5 3 4 6 4
24 24 25 25 23 21 17 13 13 15 12 11 15 8 8 5 8 6 7 7 10 14 17 16 15 12 10 8 6 3 1 4 5 6 7 7 7 6 4 4 7 5 6 6
24 16 20 22 17 15 16 8 10 8 11 12 15 9 9 3 3 9 2 3 7 14 17 15 14 12 10 9 6 4 2 4 4 5 6 7 7 6 4 5 3 3 5 4
26 22 22 17 20 13 18 14 10 11 10 11 2 7 10 9 8 8 9 8 8 14 17 17 16 13 11 11 8 6 4 5 4 5 6 6 7 6 5 5 7 7 5 5
23 26 27 18 23 16 21 18 11 11 11 11 7 7 4 0 3 5 5 5 10 16 17 17 16 13 12 12 10 6 5 5 5 6 6 6 8 6 5 6 7 4 5 6
24 25 28 24 21 22 16 19 17 16 14 9 11 5 11 5 4 4 0 4 12 16 17 17 16 13 12 11 11 8 5 6 5 5 5 5 7 8 7 8 7 4 5 5
11 21 16 23 21 23 20 16 11 10 14 14 8 6 7 6 3 4 6 8 13 16 18 17 15 14 12 11 10 9 7 5 7 5 5 5 6 6 4 6 6 6 4 5
15 14 21 17 23 22 13 17 14 13 14 12 10 6 6 2 0 3 5 11 15 17 18 17 16 14 13 12 11 9 8 7 7 6 5 5 5 6 7 4 5 7 6 7
30 13 15 23 20 22 23 22 20 13 16 10 11 8 10 6 4 4 3 11 15 17 17 16 16 16 15 13 11 10 8 7 8 7 6 6 5 5 6 7 7 8 9 7
25 16 16 16 10 14 22 21 21 20 16 16 12 10 7 7 7 6 5 12 14 18 19 17 16 16 15 14 13 11 10 9 8 9 8 7 6 6 6 7 6 10 7 9
23 17 27 22 19 18 22 21 23 21 17 15 16 15 10 10 10 8 8 10 14 18 19 18 16 16 15 14 13 12 11 11 10 9 8 9 7 7 6 6 6 7 9 11
20 25 24 26 20 22 20 23 24 24 23 20 15 16 12 10 11 11 10 11 14 17 20 19 18 17 16 16 14 12 12 12 11 10 10 9 8 8 8 7 6 6 7 9
21 17 22 21 26 22 21 25 24 25 25 22 20 19 11 12 11 11 10 14 16 19 22 21 19 18 18 17 16 14 12 13 12 11 10 10 10 9 9 8 7 7 8 8
19 16 14 21 22 20 25 27 25 23 23 20 22 19 16 12 11 13 14 15 16 18 20 22 22 20 18 18 16 16 14 14 13 12 11 11 10 11 10 9 8 8 8 7
17 20 13 12 17 22 17 21 24 24 22 21 19 17 18 16 14 14 14 16 15 15 18 20 18 18 18 18 18 16 15 15 14 13 12 11 11 12 12 11 10 8 7 7
9 16 11 11 15 9 13 12 23 23 25 23 20 19 19 15 10 12 13 14 16 16 17 18 20 20 18 19 19 17 16 16 15 14 13 13 12 12 12 12 11 9 8 7
7 8 13 11 19 27 12 14 10 15 17 18 23 21 20 15 11 13 17 17 16 14 14 16 19 20 20 19 19 19 18 17 17 16 15 14 13 13 13 13 12 10 8 8
11 10 16 12 14 10 4 17 15 18 7 15 17 20 19 14 17 10 4 15 17 14 13 15 18 20 21 21 21 21 19 19 17 16 15 15 13 13 13 12 11 10 10 9
15 11 11 14 16 13 9 8 18 8 5 6 12 15 15 19 18 11 7 12 17 16 14 17 16 17 19 21 21 21 21 19 18 16 16 15 14 11 11 13 12 11 10 9
16 15 13 13 11 7 11 10 14 8 12 10 11 10 15 16 15 11 11 11 13 12 12 14 15 16 17 20 21 22 20 20 18 18 17 16 15 13 13 13 12 11 11 10
14 7 10 9 14 7 10 8 8 11 11 6 9 9 10 12 11 12 11 11 12 12 11 12 16 17 18 19 22 22 19 20 20 18 17 16 16 15 13 11 11 11 11 10
15 15 15 13 16 12 10 18 15 12 10 9 9 9 10 11 10 12 12 12 10 10 10 11 15 16 18 18 19 19 21 21 19 19 17 17 14 16 14 13 12 12 11 11
15 20 16 13 10 16 16 12 20 15 14 13 13 9 9 9 10 9 9 9 10 9 9 11 13 15 15 16 17 19 21 22 20 18 16 15 15 15 13 13 12 9 0 13
Wind_Direction
188 203 205 206 217 236 272 253 250 252 272 267 279 289 287 283 270 253 249 223 218 211 196 186 187 187 194 229 296 290 326 349 341 348 346 342 13 3 20 340 307 281 269 225
186 216 208 217 210 223 230 240 244 247 268 273 286 288 293 282 270 263 242 222 215 202 191 186 185 188 191 189 301 284 326 352 348 355 353 341 353 39 342 312 326 44 174 201
204 211 214 212 208 213 225 239 242 259 302 259 260 274 262 272 240 244 243 233 208 202 192 186 185 186 180 179 184 340 2 350 20 4 23 32 115 165 51 30 20 22 42 188
216 217 200 201 213 212 227 217 259 261 264 282 5 293 281 273 275 254 236 215 209 196 192 183 181 180 179 163 163 145 40 20 58 15 49 19 5 50 32 53 73 18 72 114
208 208 191 208 214 207 238 232 232 257 268 284 260 252 288 238 278 292 279 191 197 190 188 180 178 174 174 156 167 171 80 57 57 48 19 357 24 51 6 89 79 33 54 72
226 210 203 213 216 217 225 203 226 244 256 246 254 249 276 274 314 319 323 118 182 180 181 174 173 167 168 160 162 171 126 85 73 49 40 28 20 48 44 20 62 39 81 79
214 200 208 211 206 203 220 213 223 217 216 249 139 245 258 309 313 324 307 318 167 174 174 172 171 173 170 164 165 177 154 101 75 60 51 37 37 45 60 20 49 56 53 58
202 204 190 198 209 191 203 208 233 224 243 249 151 250 218 7 317 288 319 326 153 171 171 172 173 175 171 168 167 173 150 130 105 83 59 49 27 46 70 56 79 78 79 48
197 209 198 203 209 215 186 219 227 256 268 273 275 187 254 254 246 205 160 137 161 167 170 171 172 177 171 171 169 178 151 134 117 96 86 66 62 48 52 75 87 71 66 69
194 208 188 197 207 210 219 201 199 222 241 237 236 233 270 225 350 101 168 168 167 167 171 172 174 175 174 170 168 182 177 149 130 114 97 79 79 74 99 77 98 90 87 65
183 210 184 189 203 199 187 220 215 253 227 235 243 253 103 277 190 340 164 169 172 176 176 173 174 175 176 171 171 183 178 164 146 134 121 101 90 80 91 82 69 79 91 115
199 197 181 209 197 216 200 214 206 223 212 245 277 258 145 248 252 282 188 170 177 177 177 177 173 174 176 176 174 179 178 172 150 145 139 112 110 101 91 86 87 97 115 120
189 208 207 192 189 216 226 211 219 218 246 251 235 239 158 191 221 220 193 172 174 181 174 179 177 177 180 178 181 182 180 172 156 153 148 135 127 123 102 92 90 96 111 116
196 199 210 211 197 190 207 223 217 218 224 233 239 252 191 206 222 194 191 181 179 183 176 180 181 179 181 180 184 185 182 165 161 156 152 146 147 140 127 114 107 101 100 110
192 210 212 226 217 201 209 213 218 218 223 234 234 241 233 236 216 228 188 185 180 184 183 185 185 181 180 178 181 185 181 171 167 162 154 153 154 148 151 136 122 111 111 110
191 215 222 217 222 221 213 217 214 218 224 228 242 251 242 235 255 205 195 188 189 190 192 190 187 182 183 179 181 180 181 177 176 170 161 157 161 157 156 155 142 138 130 125
188 205 205 220 217 225 231 218 215 219 225 228 233 237 243 233 231 226 203 199 198 193 194 191 189 183 181 181 183 179 181 178 180 180 167 163 164 167 163 167 162 151 145 138
196 197 199 207 198 208 244 224 222 225 227 224 241 245 236 235 227 228 217 203 201 196 196 196 188 185 181 180 181 180 181 181 183 186 175 172 172 172 171 171 166 161 157 156
223 190 194 198 201 217 190 204 210 216 231 229 228 226 234 233 230 248 226 200 208 201 200 194 190 184 177 180 177 180 184 185 186 186 181 178 177 172 175 176 171 171 169 165
170 243 204 204 194 221 208 161 198 211 230 218 217 222 227 227 216 234 196 209 208 203 195 190 185 179 177 180 178 182 186 189 191 186 185 180 178 174 177 179 177 175 180 181
179 189 199 179 215 224 183 188 180 199 209 198 212 219 221 219 222 244 226 188 199 189 190 191 180 183 182 176 178 187 186 194 193 187 181 179 178 177 176 173 174 176 186 178
190 188 195 217 209 220 169 206 197 203 137 199 207 220 211 217 222 213 198 188 186 185 193 192 187 184 179 179 180 187 192 190 190 188 183 179 176 182 174 176 176 181 182 182
215 208 209 203 203 75 180 207 206 216 223 218 246 219 210 214 215 199 196 185 190 184 190 192 189 181 180 184 188 191 189 185 188 188 184 178 178 186 174 179 178 179 180 186
222 256 242 251 225 223 244 240 249 238 243 267 234 204 203 216 211 196 201 193 196 182 184 192 190 186 185 191 195 200 181 183 184 187 186 181 180 184 179 185 181 191 185 194
233 220 234 248 247 259 238 245 254 241 252 233 239 220 204 199 197 193 183 179 192 195 185 199 198 190 189 193 201 197 187 184 186 185 186 186 186 186 182 196 189 196 189 198
240 230 231 232 241 240 245 229 247 246 233 229 239 211 202 194 182 184 175 170 181 188 188 194 201 192 191 191 199 197 194 188 184 185 189 189 189 182 188 189 189 207 111 189